Preview of NWS' New Version of Forecast
This preview is not operational and should not be used for support decisions.

Regional Weather Roundup (RWR)

Issued by National Weather Service (NWS)

                            
000
ASUS42 KTBW 230516
RWRFL 
FLORIDA REGIONAL WEATHER ROUNDUP
NATIONAL WEATHER SERVICE TAMPA BAY RUSKIN FL
1200 AM EST SAT FEB 23 2019

NOTE: "FAIR" INDICATES FEW OR NO CLOUDS BELOW 12,000 FEET WITH NO
SIGNIFICANT WEATHER AND/OR OBSTRUCTIONS TO VISIBILITY.

FLZ001>010-012>015-112-114-115-230600-
PANHANDLE FLORIDA
  
CITY           SKY/WX    TMP DP  RH WIND       PRES   REMARKS
PENSACOLA      FOG       68  66  93 SE10      30.10S VSB 1/2          
PENSACOLA NAS  FOG       68  68 100 E9        30.09F VSB 1/2          
MILTON NAS     FOG       68  68 100 SE7       30.10  VSB 1/2          
CRESTVIEW      CLOUDY    70  68  93 S8        30.12F FOG              
DUKE FIELD     FOG       69  69 100 S10       30.11F VSB 1/8          
VALPARAISO     FOG       68  68 100 SE6       30.11F VSB 3/4          
MARY ESTHER    FOG       67  66  98 SE7       30.10F VSB 1/4          
PANAMA CITY    CLOUDY    70  68  93 SE7       30.12F                  
TYNDALL AFB    CLOUDY    70  68  95 SE10      30.12F FOG              
APALACHICOLA   CLOUDY    68  66  93 SE3       30.13F                  

STATION/POSITION SKY/WX   TEMP    WIND        PRES    WAVE   SWELL
                          AIR SEA DIR/SP/G            HT/PER HT/PER
                          (F)     (DEG/KT/KT) (MB)    (FT/S) (FT/S)
30.1N   87.6W              67     130/  8/ 10 1019.0    3/ 7   2/ 7
29.2N   88.2W                     140/ 14/ 16 1018.6S   3/ 7   2/ 7
PANAMA CITY BEAC           67 66  130/ 13/ 14 1020.2F
TOWER C                    68     140/ 12/ 12 1020.2F

$$
FLZ011-016>038-118-127-128-134-139-239-230600-
NORTH FLORIDA
  
CITY           SKY/WX    TMP DP  RH WIND       PRES   REMARKS
MARIANNA       MOCLDY    68  68 100 CALM      30.12F                  
TALLAHASSEE    CLOUDY    69  68  96 CALM      30.14F                  
PERRY          CLOUDY    67  66  97 CALM      30.15F                  
LIVE OAK       CLOUDY    68  68 100 CALM      30.16F                  
CROSS CITY     CLOUDY    67  66  98 E3        30.17F                  
LAKE CITY      CLOUDY    68  64  88 CALM      30.18S                  
GAINESVILLE    MOCLDY    74  66  76 E6        30.19F                  
WILLISTON        N/A    N/A N/A N/A MISG        N/A                   
PALATKA        MOCLDY   N/A N/A N/A SE6       30.17F                  
MAYPORT NAS    FAIR      70  68  93 S3        30.17F                  
JACKSONVILLE   FAIR      70  64  81 SE3       30.17S                  
JAX NAS        MOCLDY    72  66  81 SE5       30.18S                  
JAX CECIL      CLOUDY    70  66  88 CALM      30.17F                  
FERNANDINA BEA FAIR      66  65  96 NE5       30.19R                  
ST AUGUSTINE   FAIR      70  68  93 S8        30.18F                  
PALM COAST     FAIR      68  67  98 SE6       30.17F                  

STATION/POSITION SKY/WX   TEMP    WIND        PRES    WAVE   SWELL
                          AIR SEA DIR/SP/G            HT/PER HT/PER
                          (F)     (DEG/KT/KT) (MB)    (FT/S) (FT/S)
SHELL POINT      NOT AVBL
KEATON BEACH               69     120/  5/  5 1020.9F
CEDAR KEY                  71      10/  3/  3 1021.2F
FERNANDINA                 68 60  350/  3/  5 1023.1R
30.7N   81.3W                 63                N/A     2/ 8
MAYPORT                    71 60  210/  2/  3 1021.9S
31.4N   80.9W              60 60   30/ 12/ 14 1023.1S   4/ 5   2/ 8
ST AUGUSTINE               67 60  180/  6/  7 1022.0F

$$
FLZ040-043>046-052-053-057-058-063-144-230600-
INTERIOR CENTRAL FLORIDA
  
CITY           SKY/WX    TMP DP  RH WIND       PRES   REMARKS
OCALA          FAIR      72  67  84 SE5       30.17F                  
LEESBURG       FAIR      71  67  87 CALM      30.17F                  
SANFORD        CLOUDY    73  71  93 SE5       30.17F                  
ORLANDO EXEC   MOCLDY    75  71  87 SE10      30.16F                  
ORLANDO INTL   MOCLDY    74  71  91 SE7       30.17F                  
KISSIMMEE      FAIR      74  71  91 SE6       30.18F                  
WINTER HAVEN   MOCLDY    75  71  87 E5        30.17F                  
LAKELAND       MOCLDY    72  70  94 E7        30.16F                  
BARTOW         MOCLDY    73  72  94 CALM      30.16F                  
SEBRING        FAIR      71  70  95 CALM      30.17S                  
OKEECHOBEE     FAIR      70  68  94 CALM      30.16F                  

$$
FLZ041-047-054-059-064-141-147-230600-
EAST CENTRAL FLORIDA
  
CITY           SKY/WX    TMP DP  RH WIND       PRES   REMARKS
DAYTONA BEACH  FAIR      70  70 100 E3        30.18F                  
DELAND         MOCLDY    70  68  94 E6        30.17F                  
JFK SPACE CTR  MOCLDY    73 N/A N/A S3        30.17F                  
CAPE CANAVERAL FAIR      72  71  97 SE7       30.16F                  
PATRICK AFB    FAIR      70  70 100 SE8       30.16F                  
MELBOURNE      FAIR      75  71  87 SE10      30.16F                  
VERO BEACH     FAIR      73  71  93 E6        30.17F                  
FT PIERCE      CLOUDY    75  71  87 E7        30.17F                  
STUART         MOCLDY    77  72  83 SE5       30.18F                  

STATION/POSITION SKY/WX   TEMP    WIND        PRES    WAVE   SWELL
                          AIR SEA DIR/SP/G            HT/PER HT/PER
                          (F)     (DEG/KT/KT) (MB)    (FT/S) (FT/S)
28.5N   80.2W              71     130/ 10/ 12 1022.0F   3/ 8   3/ 8
28.9N   78.5W              76 76  140/ 10/ 14 1023.1F   4/ 8   3/ 8
TRIDENT PIER               70 70  140/  4/  6 1022.8F
28.4N   80.5W                 67                N/A     2/ 8

$$
FLZ050-056-061-142-242-148-248-149-249-151-251-155-255-
160-260-230600-
WEST CENTRAL FLORIDA
  
CITY           SKY/WX    TMP DP  RH WIND       PRES   REMARKS
CRYSTAL RIVER  FAIR      68  66  94 CALM      30.16F                  
INVERNESS      FAIR      68  68 100 CALM      30.17F                  
BROOKSVILLE    FAIR      67  66  97 N3        30.17F                  
CLEARWATER AIR FAIR      72  68  88 CALM      30.16S                  
ST PETE CLEARW FAIR      73  69  87 NE5       30.15F                  
TAMPA INTL     FAIR      76  68  76 NE7       30.16F                  
TAMPA EXEC     MOCLDY    68  66  94 CALM      30.17S                  
PLANT CITY     MOCLDY    73  70  88 CALM      30.17F                  
MACDILL AFB    DRIZZLE   70  66  87 CALM      30.15F                  
PETER O KNIGHT CLOUDY    73  72  94 N3        30.16S                  
ST PETERSBURG    N/A    N/A N/A N/A MISG      30.14S                  
SARASOTA       FAIR      72  69  90 NE6       30.14F                  
VENICE         CLOUDY    72  70  94 E3        30.16F                  

STATION/POSITION SKY/WX   TEMP    WIND        PRES    WAVE   SWELL
                          AIR SEA DIR/SP/G            HT/PER HT/PER
                          (F)     (DEG/KT/KT) (MB)    (FT/S) (FT/S)
27.3N   84.2W                 73                N/A     3/ 5
CLEARWATER BEACH           74 74   40/  5/  7 1021.3F
MIDDLE TAMPA BAY           73      CALM  /  2 1021.4F
VENICE                     73 72   70/  3/  4 1021.1F

$$
FLZ066-069-070-075>078-162-262-165-265-230600-
SOUTHWEST FLORIDA AND KEYS
  
CITY           SKY/WX    TMP DP  RH WIND       PRES   REMARKS
PUNTA GORDA    CLOUDY    71  68  90 CALM      30.18S                  
FT MYERS       CLOUDY    74  68  81 NE3       30.15F                  
SOUTHWEST INTL CLOUDY    74  68  81 E5        30.16S                  
NAPLES         FAIR      74  69  85 E5        30.15F                  
MARCO ISLAND   FAIR     N/A N/A N/A E5        30.16F                  
IMMOKALEE      CLOUDY    72  68  88 CALM      30.14F                  
MARATHON       FAIR      81  71  71 SE9       30.12F                  
KEY WEST NAS   FAIR      79  71  76 E15       30.12S                  
KEY WEST INTL  FAIR      79  72  79 E15       30.12F                  

STATION/POSITION SKY/WX   TEMP    WIND        PRES    WAVE   SWELL
                          AIR SEA DIR/SP/G            HT/PER HT/PER
                          (F)     (DEG/KT/KT) (MB)    (FT/S) (FT/S)
NAPLES                     75 76   80/  2/  5 1021.0F
26.0N   85.6W              78 80  110/  8/ 12 1019.3
DRY TORTUGAS               77     110/  9/ 11 1019.9R
SAND KEY                   78                 1019.8F
SOMBRERO KEY               78                 1019.3F
LONG KEY                   78 79  110/ 13/ 15 1019.7F
MOLASSES REEF              78 78   80/ 11     1020.2F

$$
FLZ067-068-071>074-168-172>174-230600-
SOUTHEAST FLORIDA 
  
CITY           SKY/WX    TMP DP  RH WIND       PRES   REMARKS
W PALM BEACH   MOCLDY    77  72  84 SE13      30.17F                  
FT LAUDER-EXEC RAIN      77  76  96 E7        30.15S                  
FT LAUDERDALE  FAIR      78  76  93 SE13      30.14F                  
POMPANO BEACH  FAIR      78  73  84 SE17      30.15F                  
PEMBROKE PINES FAIR      77  73  87 SE9       30.16F                  
OPA LOCKA      MOCLDY    76  72  87 E6        30.15F                  
MIAMI          MOCLDY    78  74  87 E9        30.15F                  
WEST KENDALL   MOCLDY    75  72  90 E5        30.14F                  
HOMESTEAD      FAIR      76  72  87 E6        30.13F                  

STATION/POSITION SKY/WX   TEMP    WIND        PRES    WAVE   SWELL
                          AIR SEA DIR/SP/G            HT/PER HT/PER
                          (F)     (DEG/KT/KT) (MB)    (FT/S) (FT/S)
PORT EVERGLADES            78     120/  4/ 10 1020.9
VIRGINIA KEY               79 80  100/  7/  9 1020.4F
LAKE WORTH                 78 78  140/ 13/ 16 1022.6F
FOWEY ROCKS                78 77  110/ 18/ 19 1021.1F
SETTLEMENT POINT           76     110/ 11/ 13 1022.1F

$$